[[{"header":{"parameterUnit":"m.s-1","parameterCategory":1,"la1":30.2991,"la2":30.254,"lo1":-89.0895,"lo2":-89.0444,"dy":0.0017,"dx":0.0017,"nx":28,"ny":28,"refTime":"2024-04-06T21:00:00:Z","depth":0,"parameterNumber":2,"parameterNumberName":"U-component_of_WINDS"},"data":[0,0,0,0,0,0,0,0,0,0,0,0,0,0,0,0,0,0,0,0,0,0,0,0,0,0,0,0,0,0,0,0,0,0,0,0,0,0,0,0,0,0,0,0,0,0,0,0,0,0,0,0,0,0,0,0,0,0,-2.6223,-2.6222,0,-2.6126,-2.6125,-2.6124,-2.6032,-2.6031,-2.603,-2.6029,-2.593,-2.5928,-2.5927,0,0,0,0,0,0,0,0,0,0,0,0,0,-2.6328,-2.6327,-2.6223,-2.6222,-2.6221,-2.6127,-2.6125,-2.6124,-2.6032,-2.6031,-2.6029,-2.6028,-2.593,-2.5929,-2.5927,0,0,0,0,0,0,0,0,0,0,0,0,0,-2.6262,-2.6326,-2.6223,-2.6164,-2.6157,-2.6127,-2.6125,-2.6124,-2.6032,-2.6031,-2.6029,-2.6027,-2.5931,-2.5929,-2.5926,-2.5947,0,0,-2.5919,-2.5918,0,0,0,0,0,0,0,0,-2.6266,-2.6259,-2.6174,-2.6168,-2.616,-2.6089,-2.6126,-2.6064,-2.6033,-2.608,-2.6028,-2.6026,-2.5984,-2.5978,-2.5963,-2.5943,-2.5938,-2.5919,-2.5918,-2.5917,-2.5916,0,0,0,0,0,0,0,-2.6271,-2.6262,-2.6185,-2.6172,-2.6164,-2.6142,-2.613,-2.6114,-2.6043,-2.6076,-2.6069,-2.6059,-2.598,-2.5966,-2.596,-2.5937,-2.5919,-2.5917,-2.5916,-2.5915,-2.5928,-2.593,0,0,0,0,0,0,-2.6285,-2.6267,-2.6188,-2.6182,-2.621,-2.6141,-2.6128,-2.6114,-2.6043,-2.6031,-2.606,-2.6055,-2.5971,-2.5963,-2.5957,-2.5976,-2.5917,-2.5915,-2.5913,-2.5927,-2.5929,-2.5931,0,0,0,0,0,0,-2.6287,-2.6278,-2.6192,-2.6222,-2.6209,-2.6141,-2.6126,-2.6113,-2.6098,-2.6031,-2.6018,-2.6058,-2.5969,-2.596,-2.595,-2.5971,-2.5914,-2.5912,-2.5924,-2.5927,-2.593,-2.6015,0,0,0,0,0,0,-2.6291,-2.628,-2.6287,-2.6223,-2.6208,-2.6187,-2.6127,-2.6112,-2.6094,-2.6086,-2.6026,-2.6014,-2.5967,-2.5954,-2.5948,-2.5967,-2.591,-2.5922,-2.5926,-2.5929,-2.601,-2.602,-2.6029,0,0,0,0,0,-2.6295,-2.6315,-2.6288,-2.6279,-2.6216,-2.6189,-2.618,-2.6125,-2.6096,-2.6103,-2.606,-2.6016,-2.597,-2.5954,-2.5946,-2.5965,-2.5921,-2.5925,-2.5929,-2.6006,-2.6018,-2.6029,0,0,0,0,0,0,-2.6383,-2.6306,-2.6275,-2.6275,-2.6239,-2.6173,-2.618,-2.614,-2.6111,-2.6105,-2.6038,-2.6025,-2.6023,-2.5993,-2.5976,-2.5981,-2.5939,-2.5942,-2.6001,-2.6012,-2.6021,-2.6028,-2.5908,0,0,0,0,0,-2.6403,-2.6387,-2.632,-2.6327,-2.6311,-2.6249,-2.6235,-2.6195,-2.6155,-2.614,-2.6096,-2.6059,-2.6036,-2.6022,-2.5998,-2.6005,-2.5991,-2.6014,-2.6024,-2.6032,-2.6035,-2.6036,-2.6046,-2.5943,-2.5943,-2.5943,0,0,-2.6443,-2.6399,-2.6393,-2.6344,-2.6311,-2.6296,-2.6236,-2.6223,-2.6212,-2.6138,-2.6126,-2.6093,-2.6047,-2.6046,-2.6044,-2.6021,-2.606,-2.6037,-2.6044,-2.6042,-2.6041,-2.6051,-2.6059,-2.5946,-2.5946,-2.5945,0,0,-2.6509,-2.6474,-2.6475,-2.6444,-2.6396,-2.6354,-2.6355,-2.6295,-2.627,-2.6257,-2.6201,-2.6187,-2.6149,-2.6118,-2.6098,-2.6153,-2.6111,-2.6146,-2.6195,-2.6198,-2.6206,-2.6212,-2.6231,-2.6239,-2.615,-2.615,-2.615,0,-2.6565,-2.654,-2.6481,-2.6471,-2.6451,-2.6384,-2.6385,-2.6357,-2.6304,-2.6291,-2.6267,-2.6218,-2.6182,-2.6173,-2.6186,-2.6172,-2.6171,-2.6152,-2.6209,-2.6215,-2.6221,-2.6238,-2.6246,-2.6154,-2.6154,-2.6153,-2.6153,0,-2.6611,-2.6595,-2.6602,-2.6552,-2.6532,-2.6528,-2.6469,-2.6456,-2.6419,-2.638,-2.6368,-2.6323,-2.6288,-2.6283,-2.6247,-2.6269,-2.6256,-2.6222,-2.6178,-2.6236,-2.6251,-2.6257,-2.6161,-2.6159,-2.6158,-2.6157,0,0,-2.6729,-2.6646,-2.665,-2.6626,-2.6568,-2.6554,-2.6547,-2.6512,-2.6503,-2.6469,-2.646,-2.643,-2.6398,-2.6375,-2.6334,-2.6336,-2.6382,-2.6301,-2.6299,-2.6317,-2.6403,-2.6429,-2.6437,-2.6354,-2.6355,-2.6356,-2.6406,0,-2.6784,-2.6767,-2.6714,-2.6713,-2.6697,-2.6633,-2.6626,-2.659,-2.6554,-2.6536,-2.6496,-2.6475,-2.6434,-2.642,-2.6419,-2.6377,-2.6398,-2.6372,-2.6346,-2.6346,-2.6358,-2.6445,-2.6472,-2.6522,-2.6412,-2.6413,-2.6414,0,-2.6846,-2.6815,-2.6813,-2.6755,-2.6746,-2.6742,-2.6705,-2.6689,-2.6646,-2.662,-2.6595,-2.655,-2.6538,-2.6499,-2.6483,-2.6466,-2.6453,-2.643,-2.6431,-2.6425,-2.6383,-2.6442,-2.6537,-2.6544,-2.6422,-2.6422,-2.6421,0,-2.6931,-2.689,-2.6882,-2.6864,-2.6797,-2.6795,-2.6767,-2.6723,-2.6705,-2.6674,-2.6662,-2.663,-2.6613,-2.6589,-2.6537,-2.6513,-2.6526,-2.6482,-2.6504,-2.6505,-2.6508,-2.6509,-2.6602,-2.6501,-2.6501,-2.6501,-2.6501,0,-2.6998,-2.6999,-2.692,-2.6915,-2.6914,-2.6853,-2.6854,-2.682,-2.6781,-2.6769,-2.6712,-2.6702,-2.6634,-2.6616,-2.6575,-2.6568,-2.656,-2.6538,-2.6527,-2.6543,-2.6546,-2.6532,-2.6527,-2.6503,-2.6503,-2.6502,-2.6502,0,-2.7093,-2.704,-2.7028,-2.6965,-2.695,-2.6952,-2.6898,-2.6891,-2.6852,-2.6837,-2.683,-2.6769,-2.6744,-2.669,-2.6652,-2.6624,-2.6626,-2.6607,-2.6641,-2.6634,-2.6658,-2.6656,-2.6745,-2.6753,-2.6649,-2.665,-2.6651,0,-2.7138,-2.7137,-2.7075,-2.7062,-2.7037,-2.7018,-2.6999,-2.694,-2.6923,-2.6875,-2.6874,-2.6846,-2.682,-2.6784,-2.6736,-2.6706,-2.6685,-2.6718,-2.668,-2.6696,-2.6685,-2.6685,-2.6684,-2.6727,-2.6728,-2.6729,-2.673,0,-2.7225,-2.7199,-2.7175,-2.7142,-2.7122,-2.7093,-2.7061,-2.7054,-2.6987,-2.6972,-2.6946,-2.6926,-2.6886,-2.6859,-2.6822,-2.6792,-2.675,-2.6743,-2.6746,-2.6761,-2.6781,-2.677,-2.6663,-2.6741,-2.674,-2.6739,-2.6738,-2.6738,-2.7296,-2.7292,-2.7247,-2.7222,-2.7192,-2.7163,-2.7154,-2.7113,-2.7091,-2.7054,-2.702,-2.6998,-2.6956,-2.6902,-2.6876,-2.6857,-2.6836,-2.6841,-2.6842,-2.6844,-2.685,-2.6784,-2.685,-2.685,-2.685,-2.6849,-2.6849,0,-2.7378,-2.7347,-2.7324,-2.7282,-2.7262,-2.7224,-2.7187,-2.7173,-2.7154,-2.7118,-2.7094,-2.7064,-2.7037,-2.6987,-2.6956,-2.6951,-2.6931,-2.6944,-2.6944,-2.6938,-2.6871,-2.6871,-2.6961,-2.6961,-2.6961,-2.6961,-2.6961,-2.6961,-2.7419,-2.741,-2.7379,-2.7355,-2.7322,-2.73,-2.7282,-2.7255,-2.7226,-2.7196,-2.7173,-2.7141,-2.7099,-2.7064,-2.7037,-2.7023,-2.7014,-2.7034,-2.7014,-2.6953,-2.6942,-2.6932,-2.6932,-2.7033,-2.7033,-2.7081,-2.7082,-2.7082]},{"header":{"parameterUnit":"m.s-1","parameterCategory":1,"la1":30.2991,"la2":30.254,"lo1":-89.0895,"lo2":-89.0444,"dy":0.0017,"dx":0.0017,"nx":28,"ny":28,"refTime":"2024-04-06T21:00:00:Z","depth":0,"parameterNumber":3,"parameterNumberName":"V-component_of_WINDS"},"data":[0,0,0,0,0,0,0,0,0,0,0,0,0,0,0,0,0,0,0,0,0,0,0,0,0,0,0,0,0,0,0,0,0,0,0,0,0,0,0,0,0,0,0,0,0,0,0,0,0,0,0,0,0,0,0,0,0,0,1.5292,1.5291,0,1.5226,1.5226,1.5225,1.5205,1.5205,1.5205,1.5205,1.5136,1.5134,1.5132,0,0,0,0,0,0,0,0,0,0,0,0,0,1.5398,1.5396,1.5292,1.5291,1.529,1.5226,1.5226,1.5225,1.5204,1.5205,1.5205,1.5206,1.5137,1.5135,1.5132,0,0,0,0,0,0,0,0,0,0,0,0,0,1.5344,1.5395,1.5292,1.5273,1.527,1.5227,1.5226,1.5224,1.5204,1.5205,1.5205,1.5206,1.5138,1.5135,1.5132,1.5102,0,0,1.5122,1.512,0,0,0,0,0,0,0,0,1.5347,1.534,1.5276,1.5274,1.5271,1.5224,1.5237,1.5183,1.5204,1.5229,1.5205,1.5206,1.5165,1.516,1.5146,1.5099,1.5096,1.5121,1.512,1.5118,1.5117,0,0,0,0,0,0,0,1.5351,1.5343,1.5266,1.5275,1.5272,1.5267,1.5259,1.5227,1.5195,1.5227,1.5226,1.5218,1.5164,1.5149,1.5144,1.5095,1.5122,1.5119,1.5117,1.5115,1.502,1.502,0,0,0,0,0,0,1.5358,1.5346,1.5268,1.5264,1.5311,1.5264,1.5256,1.5239,1.5195,1.5189,1.5218,1.5217,1.5155,1.5148,1.5142,1.5105,1.5118,1.5115,1.5113,1.5021,1.502,1.5019,0,0,0,0,0,0,1.536,1.5351,1.5271,1.5305,1.5294,1.5262,1.5242,1.5237,1.5223,1.5188,1.5182,1.5209,1.5155,1.5146,1.5112,1.5102,1.5114,1.5111,1.5021,1.5021,1.502,1.503,0,0,0,0,0,0,1.5364,1.5352,1.5341,1.5304,1.5292,1.5243,1.5242,1.5236,1.5218,1.5216,1.5179,1.5173,1.5154,1.5117,1.5109,1.5098,1.5108,1.5022,1.5021,1.502,1.503,1.5029,1.5028,0,0,0,0,0,1.5367,1.5346,1.5341,1.5331,1.5278,1.5242,1.5235,1.5215,1.5217,1.5205,1.5183,1.5174,1.5105,1.5114,1.5105,1.5092,1.5023,1.5021,1.502,1.503,1.5029,1.5028,0,0,0,0,0,0,1.5381,1.5341,1.5334,1.5301,1.5275,1.5239,1.5223,1.5214,1.5187,1.5187,1.5162,1.5154,1.5122,1.5103,1.5115,1.5061,1.5063,1.506,1.5074,1.5073,1.5072,1.5077,1.5106,0,0,0,0,0,1.5381,1.5356,1.5322,1.5295,1.5283,1.5255,1.5239,1.5226,1.5198,1.5187,1.5162,1.5135,1.5107,1.5089,1.5061,1.5028,1.5019,1.5014,1.5014,1.5013,1.501,1.4991,1.4989,1.5015,1.5015,1.5015,0,0,1.5378,1.5353,1.5339,1.5297,1.5276,1.525,1.5246,1.5219,1.52,1.5182,1.5149,1.513,1.5098,1.5064,1.5048,1.5048,1.5001,1.5011,1.5011,1.5009,1.499,1.4987,1.4985,1.5014,1.5014,1.5014,0,0,1.5362,1.534,1.5316,1.5295,1.5263,1.5245,1.5239,1.5204,1.5191,1.5158,1.5144,1.5121,1.5073,1.5051,1.5033,1.5009,1.5,1.5001,1.4996,1.4978,1.4976,1.4974,1.4965,1.4962,1.4998,1.4998,1.4998,0,1.5363,1.5324,1.5304,1.5278,1.526,1.5244,1.5219,1.5199,1.516,1.5147,1.5148,1.5088,1.5066,1.5026,1.5021,1.5007,1.4999,1.5004,1.4978,1.4975,1.4973,1.4965,1.4962,1.4998,1.4998,1.4998,1.4998,0,1.5327,1.5301,1.5285,1.5248,1.5228,1.5203,1.5178,1.5161,1.5149,1.5131,1.5097,1.5069,1.5036,1.5026,1.5014,1.4985,1.4986,1.4983,1.4984,1.4972,1.4963,1.496,1.4999,1.4999,1.4999,1.4999,0,0,1.5317,1.527,1.5264,1.5247,1.5211,1.519,1.5164,1.5132,1.5117,1.5091,1.5068,1.5028,1.5025,1.5005,1.4991,1.4975,1.4958,1.4973,1.4972,1.4971,1.4924,1.4926,1.4923,1.4952,1.4951,1.495,1.4926,0,1.5295,1.5248,1.523,1.5192,1.5167,1.5152,1.5129,1.5104,1.5087,1.5063,1.5043,1.5015,1.5013,1.5001,1.4985,1.4963,1.4948,1.4965,1.493,1.4929,1.4938,1.4918,1.4921,1.49,1.4923,1.4922,1.4922,0,1.5263,1.5238,1.5197,1.5165,1.5153,1.5133,1.5103,1.508,1.5052,1.504,1.5019,1.5005,1.4977,1.4981,1.4941,1.4953,1.4938,1.4925,1.4924,1.492,1.4924,1.4913,1.4892,1.4889,1.4916,1.4917,1.4917,0,1.526,1.5215,1.5185,1.5171,1.5132,1.5118,1.5101,1.5073,1.5056,1.5029,1.5017,1.4987,1.497,1.4947,1.4927,1.4931,1.4889,1.4891,1.4878,1.4879,1.487,1.487,1.4846,1.486,1.486,1.486,1.4861,0,1.5237,1.5213,1.5183,1.5164,1.5137,1.5115,1.5089,1.507,1.5046,1.5023,1.5008,1.4987,1.4961,1.4937,1.492,1.489,1.4883,1.4872,1.4868,1.4874,1.4875,1.4863,1.4864,1.486,1.486,1.486,1.486,0,1.5228,1.5207,1.5173,1.514,1.5131,1.5112,1.5083,1.5064,1.5046,1.5018,1.501,1.4982,1.4953,1.493,1.4891,1.488,1.4848,1.4844,1.4858,1.4856,1.4844,1.4846,1.4811,1.4805,1.4824,1.4824,1.4824,0,1.5215,1.5197,1.5161,1.5146,1.5129,1.5104,1.5086,1.5064,1.5046,1.5013,1.4998,1.4968,1.4942,1.4896,1.4872,1.4842,1.4837,1.4827,1.4832,1.4839,1.4837,1.4838,1.4836,1.4826,1.4826,1.4826,1.4826,0,1.5195,1.5185,1.516,1.5132,1.5111,1.5087,1.5063,1.5051,1.5025,1.5005,1.4975,1.4956,1.4917,1.4887,1.4855,1.4837,1.4827,1.4824,1.482,1.4825,1.4834,1.4829,1.4856,1.4825,1.4825,1.4825,1.4825,1.4825,1.5183,1.5166,1.5139,1.5111,1.5091,1.5069,1.505,1.503,1.5005,1.4973,1.4961,1.4931,1.4903,1.4859,1.4841,1.4817,1.4816,1.4809,1.4808,1.4806,1.4807,1.4838,1.4811,1.4811,1.4811,1.4811,1.4811,0,1.5162,1.5144,1.5119,1.5086,1.5065,1.5058,1.5031,1.5013,1.4987,1.4962,1.4938,1.4903,1.4875,1.4848,1.4818,1.4804,1.4798,1.4796,1.4797,1.4793,1.4809,1.4816,1.4801,1.4801,1.4801,1.4801,1.4801,1.4801,1.5148,1.5119,1.5106,1.5066,1.5048,1.5019,1.5004,1.4983,1.4963,1.4926,1.4902,1.4886,1.486,1.4828,1.4802,1.4795,1.4784,1.4783,1.4775,1.4791,1.4792,1.4793,1.4799,1.4781,1.4781,1.4761,1.4761,1.4761]}]]